02.05.2024;05:00;13
02.05.2024;04:00;10
02.05.2024;03:00;10
02.05.2024;02:00;13
02.05.2024;01:00;23
02.05.2024;00:00;27
01.05.2024;23:00;18
01.05.2024;22:00;16
01.05.2024;21:00;8
01.05.2024;20:00;5
01.05.2024;19:00;9
01.05.2024;18:00;12
01.05.2024;17:00;13
01.05.2024;16:00;11
01.05.2024;15:00;8
01.05.2024;14:00;8
01.05.2024;13:00;14
01.05.2024;12:00;12
01.05.2024;11:00;15
01.05.2024;10:00;16
01.05.2024;09:00;20
01.05.2024;08:00;18
01.05.2024;07:00;20
01.05.2024;06:00;14
01.05.2024;05:00;16
01.05.2024;04:00;10
01.05.2024;03:00;10
01.05.2024;02:00;10
01.05.2024;01:00;14
01.05.2024;00:00;19
30.04.2024;23:00;25
30.04.2024;22:00;30
30.04.2024;21:00;28
30.04.2024;20:00;12
30.04.2024;19:00;9
30.04.2024;18:00;6
30.04.2024;17:00;10
30.04.2024;16:00;12
30.04.2024;15:00;9
30.04.2024;14:00;8
30.04.2024;13:00;9
30.04.2024;12:00;20
30.04.2024;11:00;22
30.04.2024;10:00;16
30.04.2024;09:00;24
30.04.2024;08:00;28
30.04.2024;07:00;34
30.04.2024;06:00;19
